CZ-6A DEB, 56272

Orbit data source: Space-Track

CZ-6A DEB, 56272 is space debris in SSO originally from a launch on Fri, 11 Nov 2022 UTC launched from the Taiyaun Space Center, China (TSC). Debris objects in space refer to the collection of defunct objects orbiting the Earth. Examples of debris include non-operational satellites, rocket bodies, and fragments generated from explosions, collisions, or faulty payload assembly.

Loading next visibility...
Identifier
56272, 2022-151ACQ
Orbit
SSO
Country
Flag of CNCN / PRC
Related business
Manufacturer
SAST
Mission
Spacecraft
Bus & Motor
Unknown
Mass
Unknown
Launch date (UTC)
2022-11-11 (4 years ago)
Launch vehicle
Unknown
Launch site
Taiyaun Space Center, China (TSC)
Object type
Payload
Rocket body
Debris
Shape & HBR
Unknown shape, 0.1 m
Radar Cross Section
Medium (>0.1 m² and <1 m²)

Expand to show TLE details & history
Last TLE update: 2 days ago

TLE from 2 days ago
0 CZ-6A DEB
1 56272U 22151ACQ 26171.34857951  .00003854  00000-0  13730-2 0  9998
2 56272  98.7562 197.2151 0011277 215.2881 144.7558 14.34809240167847
Epoch: 2026-06-20T08:21Z
TLE epoch observation values (Epoch: 2026-06-20T08:21:57.269Z)
Latitude
-0.00004°
Longitude
163.162°
Altitude
785.227 km
Speed
7.458 km/s
True Right ascension
13h 08m 51s
True Declination
0° 00' 00"
Sunlit
Object was in daylight at epoch
Visualization orbit readout
Latitude
Unknown
Longitude
Unknown
Altitude
Unknown
Speed
Unknown
Apparent Right ascension
Unknown
Apparent Declination
Unknown
Sunlit
N/A
Visualization observer readout
Local Sidereal Time
21:43:05
Azimuth
Unknown
Elevation
Unknown
Doppler factor
Unknown
Orbital elements
Apogee altitude
780.906 km
Perigee altitude
764.777 km
Semi-major axis
7,150.978 km
Eccentricity
0.00113
Inclination
98.7562°
RAAN
197.2151°
Arg. of periapsis
215.2881°
True anomaly
144.83029°
Mean anomaly
144.7558°
Eccentric anomaly
144.79305°
Mean motion
3.58918 °/min
Orbital period
100.3 mins
BSTAR
0.001373
Loading maneuver chart data...
Computing Atmospheric mass density...
Loading historical data...
Loading historical data...
Loading historical data...
Loading historical data...
Loading historical data...
Loading historical data...
Loading historical data...

Documentation

Showing up to 5 results
|